Home   Weather   Niagara Falls   Past weeks

Flag for Canada Past Weather in Niagara Falls, Ontario, Canada — Yesterday and Last 2 Weeks

57 °F

Broken clouds.

Feels Like: 54 °F
Forecast: 45 / 57 °F
Wind: 15 mph from Northwest

Location: Niagara Falls International Airport

Current Time: Oct 23, 2016 at 12:24:14 PM

Latest Report: Oct 23, 2016 at 11:53 AM

Visibility: 10 mi

Pressure: 29.90 "Hg

Humidity: 58%

Dew Point: 42 °F

Location of Niagara FallsLocation

Past Weather in Niagara Falls — Graph


Niagara Falls Temperature Yesterday

Maximum temperature yesterday: 49 °F (at 2:53 PM)
Minimum temperature yesterday: 43 °F (at 5:53 AM)
Average temperature yesterday: 45 °F

High & Low Weather Summary for the Past Weeks

High78 °F (Oct 18, 12:53 PM)94% (Oct 17, 8:53 AM)30.48 "Hg (Oct 17, 8:53 AM)
Low35 °F (Oct 11, 7:00 AM)29% (Oct 11, 2:53 PM)29.59 "Hg (Oct 18, 1:53 PM)
Average57 °F68%30.07 "Hg
* Reported Oct 8 10:02 AM — Oct 23 10:53 AM, Niagara Falls, Weather by CustomWeather, © 2016

Note: Actual official high and low records may vary slightly from our data, if they occured in-between our weather recording intervals... More about our weather records


Niagara Falls Weather History for the Previous 24 Hours

Scroll right to see more
Time TempWeatherWind HumidityBarometerVisibility
10:53 AM
Sun, Oct 23
54 °FPartly sunny.18 mph64%29.92 "Hg10 mi
9:53 AM52 °FPassing clouds.13 mph69%29.92 "Hg10 mi
8:53 AM48 °FScattered clouds.9 mph74%29.92 "Hg10 mi
7:53 AM44 °FPartly sunny.9 mph79%29.90 "Hg10 mi
6:59 AM47 °FPassing clouds.12 mph71%29.87 "Hg10 mi
6:01 AM46 °FMostly cloudy.14 mph71%29.87 "Hg10 mi
4:53 AM45 °FMostly cloudy.13 mph71%29.88 "Hg10 mi
3:53 AM42 °FOvercast.13 mph76%29.87 "Hg10 mi
2:53 AM41 °FPassing clouds.13 mph76%29.87 "Hg10 mi
1:53 AM41 °FPassing clouds.14 mph76%29.87 "Hg10 mi
12:53 AM42 °FMostly cloudy.10 mph73%29.85 "Hg10 mi
11:53 PM
Sat, Oct 22
45 °FPassing clouds.16 mph65%29.85 "Hg10 mi
10:53 PM45 °FPassing clouds.17 mph63%29.85 "Hg10 mi
9:53 PM44 °FPassing clouds.17 mph63%29.85 "Hg10 mi
8:53 PM45 °FPassing clouds.18 mph58%29.84 "Hg10 mi
7:53 PM46 °FPassing clouds.21 mph54%29.84 "Hg10 mi
6:53 PM47 °FPassing clouds.25 mph54%29.82 "Hg10 mi
5:53 PM47 °FPartly sunny.20 mph56%29.81 "Hg10 mi
4:53 PM48 °FPartly sunny.22 mph54%29.79 "Hg10 mi
3:53 PM49 °FBroken clouds.24 mph57%29.78 "Hg10 mi
2:53 PM49 °FPartly sunny.21 mph57%29.78 "Hg10 mi
1:53 PM48 °FPartly sunny.23 mph56%29.78 "Hg10 mi
12:53 PM46 °FMostly cloudy.22 mph63%29.79 "Hg10 mi
Weather by CustomWeather, © 2016

See weather overviewHow to use our weather pages